Location: Bratislava
(48.1500°N, 17.1170°E)
Time: 14:25:22
(UTC+01:00)

ISS - Pass Details

Date: 27 February 2019
Orbit: 406 x 411 km, 51.6° (Epoch: 18 March)

Event Time Altitude Azimuth Distance (km) Brightness Sun altitude
Exits shadow 04:45:49 22° 175° (S) 944 -2.1 -19.4°
Maximum altitude 04:46:54 27° 143° (SE) 825 -2.0 -19.2°
Drops below altitude 10° 04:49:43 10° 83° (E) 1,468 0.3 -18.7°
Sets 04:52:00 0° 71° (ENE) 2,332 1.6 -18.3°
